Location: Sungai Anya
(2.6167°N, 114.0500°E)
Time: 19:07:42
(UTC+00:00)

ARIANE 5 R/B - Pass Details

Date: 19 October 2021
Orbit: 314 x 34163 km, 2.3° (Epoch: 07 December)

Event Time Altitude Azimuth Distance (km) Brightness Sun altitude
Rises 02:15:51 0° 269° (W) 14,458 9.2 59.2°
Reaches altitude 10° 02:27:13 10° 269° (W) 16,140 9.6 61.7°
Drops below altitude 10° 07:45:50 10° 272° (W) 37,261 12.8 34.5°
Maximum altitude 11:24:59 66° 189° (S) 1,310 4.2 -19.2°
Enters shadow 11:27:23 30° 115° (ESE) 1,438 4.0 -19.8°
